Regional Weather Roundup
Issued by NWS

Home | Current Version | Previous Version | Graphics & Text | Print | Product List | Glossary On
Versions: 1 2 3 4 5 6 7 8 9 10 11 12 13 14 15 16 17 18 19 20 21 22 23 24 25 26 27 28 29 30 31 32 33 34 35 36 37 38 39 40 41 42 43 44 45 46 47 48 49 50
000
ASUS44 KMEG 110310
RWRTN
TENNESSEE HOURLY STATE WEATHER ROUNDUP
NATIONAL WEATHER SERVICE MEMPHIS TN
900 PM CST SAT DEC 10 2016

TNZ002-004-019-021-049-052-054-088>092-110400-
WEST TENNESSEE

CITY           SKY/WX    TMP DP  RH WIND       PRES   REMARKS
MEMPHIS INTL   MOCLDY    41  15  35 SE8       30.34F
NWS MEMPHIS      N/A     37 N/A N/A MISG        N/A
JACKSON        MOCLDY    34  15  46 CALM      30.37F
DYERSBURG      CLOUDY    37  18  44 S9        30.34F WCI  31
UNION CITY     CLOUDY    36  18  48 CALM      30.33S
PARIS          CLEAR     30  14  51 CALM      30.36F
HUNTINGDON     PTCLDY    32  18  55 SE8       30.35F WCI  25
LEXINGTON      CLEAR     28  16  59 CALM      30.38S
$$

TNZ008-025-027-028-033-062-065-066-110400-
NORTH MIDDLE TENNESSEE

CITY           SKY/WX    TMP DP  RH WIND       PRES   REMARKS
NASHVILLE      CLEAR     27  17  66 S6        30.41F WCI  20
PORTLAND       CLEAR     27  18  69 CALM      30.40S
CLARKSVILLE    CLOUDY    27  15  61 E3        30.40S
SMYRNA         CLEAR     24  20  84 CALM      30.43S
GALLATIN       CLEAR     27  19  74 CALM      30.44F
CROSSVILLE     CLEAR     29  13  51 CALM      30.37S
$$

TNZ061-075-076-078-094-096-097-110400-
SOUTH MIDDLE TENNESSEE

CITY           SKY/WX    TMP DP  RH WIND       PRES   REMARKS
FAYETTEVILLE   CLEAR     30  18  59 CALM      30.40F
TULLAHOMA      CLEAR     25  16  68 CALM      30.40S
WINCHESTER     CLEAR     21  19  93 CALM      30.41S
MCMINNVILLE    CLEAR     25  18  74 CALM        N/A
COLUMBIA       CLEAR     27  25  93 S3        30.38F
SHELBYVILLE    CLEAR     27  21  80 E3        30.42R
$$

TNZ017-018-042-046-047-110400-
NORTHEAST TENNESSEE

CITY           SKY/WX    TMP DP  RH WIND       PRES   REMARKS
TRI CITIES     CLOUDY    24  17  74 CALM      30.43S
ELIZABETHTON   CLOUDY    28  16  59 E6        30.42S WCI  22
$$

TNZ012-013-036-069-073-074-110400-
CENTRAL EAST TENNESSEE

CITY           SKY/WX    TMP DP  RH WIND       PRES   REMARKS
KNOXVILLE      CLEAR     31  14  49 CALM      30.41F
OAK RIDGE      CLEAR     27  19  72 CALM      30.44F
DOWNTOWN KNOXV CLEAR     28  25  86 CALM      30.43F
GATLINBURG     CLEAR     25  16  68 CALM      30.41F
MORRISTOWN     CLEAR     28  16  59 CALM      30.40S
JACKSBORO      CLEAR     25  19  80 CALM      30.45S
$$

TNZ083-085-099-110400-
SOUTHEAST TENNESSEE

CITY           SKY/WX    TMP DP  RH WIND       PRES   REMARKS
CHATTANOOGA    CLEAR     30  20  66 CALM      30.44R
$$

SKY/WX REPORTED AS FAIR MEANS FEW OR NO CLOUDS BELOW
12 THOUSAND FEET.





USA.gov is the U.S. government's official web portal to all federal, state and local government web resources and services.